Regional Weather Roundup
Issued by NWS

Home | Current Version | Previous Version | Graphics & Text | Print | Product List | Glossary On
Versions: 1 2 3 4 5 6 7 8 9 10 11 12 13 14 15 16 17 18 19 20 21 22 23 24 25 26 27 28 29 30 31 32 33 34 35 36 37 38 39 40 41 42 43 44 45 46 47 48 49 50
000
ASUS43 KDMX 211801
RWRIA

WEATHER ROUNDUP FOR IOWA
NATIONAL WEATHER SERVICE DES MOINES IA
1200 PM CST SAT JAN 21 2017

NOTE: "FAIR" INDICATES FEW OR NO CLOUDS BELOW 12,000 FEET WITH NO
SIGNIFICANT WEATHER AND/OR OBSTRUCTIONS TO VISIBILITY.

* - THESE STATIONS ARE NOT NWS STATIONS...THUS NOT UNDER NWS
QUALITY CONTROL.  THEY ALSO DO NOT REPORT WEATHER SUCH
AS PRECIPITATION OR FOG.

IAZ001>003-012>014-020>022-031>034-043>046-211900-
   NORTHWEST IOWA

CITY           SKY/WX    TMP DP  RH WIND       PRES   REMARKS
CARROLL *      CLOUDY    41  41 100 SW12      29.41F FOG
CHEROKEE *     CLOUDY    38  38 100 SW7       29.40F FOG     WCI  33
DENISON *      CLOUDY    39  39 100 W8        29.40S WCI  34
LE MARS *      CLOUDY    39  37  93 W8        29.41F WCI  34
ORANGE CITY *  CLOUDY    37  37 100 W12       29.39F FOG     WCI  30
SHELDON *      FOG       37  37 100 SW9       29.37S VSB<1/4 WCI  31
SIOUX CITY     CLOUDY    43  37  79 NW10      29.40F
6HR MIN TEMP:  36; 6HR MAX TEMP:  44; 6HR PCP: TRACE;

SPENCER        CLOUDY    37  37 100 S7        29.39S FOG     WCI  32
6HR MIN TEMP:  34; 6HR MAX TEMP:  37;

STORM LAKE *   FOG       37  37 100 SW9       29.39F VSB<1/4 WCI  31
$$

IAZ055>058-069>071-079>083-090>094-211900-
   SOUTHWEST IOWA

CITY           SKY/WX    TMP DP  RH WIND       PRES   REMARKS
ATLANTIC *     CLOUDY    41  39  93 SW10      29.44F FOG
AUDUBON *      CLOUDY    39  37  93 SW9       29.43F FOG     WCI  33
CLARINDA *     CLOUDY    41  41 100 SW12      29.50S FOG
COUNCIL BLFS * MOSUNNY   43  43 100 SW8       29.44S
CRESTON *      CLOUDY    41  41 100 SW13      29.47S
HARLAN  *      CLOUDY    41  41 100 SW12      29.47R FOG
LAMONI         CLOUDY    42  41  96 SW14      29.49S FOG
6HR MIN TEMP:  41; 6HR MAX TEMP:  43;

RED OAK *      CLOUDY    39  39 100 MISG      29.47S FOG
SHENANDOAH *   CLOUDY    41  39  93 S13       29.49S FOG
$$

IAZ047>049-059>061-072>074-084-211900-
   CENTRAL IOWA

CITY           SKY/WX    TMP DP  RH WIND       PRES   REMARKS
AMES           CLOUDY    43  43 100 SW10      29.42F FOG
6HR MIN TEMP:  39; 6HR MAX TEMP:  43;

ANKENY *       CLOUDY    45  43  93 SW10      29.45R
BOONE *        CLOUDY    41  41 100 W10       29.40F FOG
CHARITON *     CLOUDY    43  43 100 SW12      29.47R FOG
DES MOINES     CLOUDY    46  43  89 SW12      29.44S
6HR MIN TEMP:  44; 6HR MAX TEMP:  46; 6HR PCP: TRACE;

GRINNELL*      CLOUDY    43  43  98 SW9       29.43F FOG
KNOXVILLE *    CLOUDY    46  43  87 SW12      29.44R
MARSHALLTOWN   CLOUDY    44  44 100 SW10      29.41S FOG
6HR MIN TEMP:  42; 6HR MAX TEMP:  44;

NEWTON *       CLOUDY    45  43  93 SW12      29.43S FOG
PELLA *        CLOUDY    47  47  97 SW10      29.46S FOG
PERRY *        CLOUDY    42  42  97 SW8       29.42F
$$

IAZ004>006-015-016-023>025-035-036-211900-
   NORTH CENTRAL IOWA

CITY           SKY/WX    TMP DP  RH WIND       PRES   REMARKS
ALGONA *       FOG       39  39 100 SW8       29.39F VSB 3/4 WCI  34
CLARION *      FOG       39  39 100 SW8       29.40F VSB 1/4 WCI  34
ESTHERVILLE    CLOUDY    36  36 100 S8        29.38S FOG     WCI  30
6HR MIN TEMP:  32; 6HR MAX TEMP:  36;

FORT DODGE *   CLOUDY    41  37  87 SW7       29.41F
MASON CITY     CLOUDY    37  36  96 S8        29.40S FOG     WCI  31
6HR MIN TEMP:  33; 6HR MAX TEMP:  37; 6HR PCP:  0.03;

FOREST CITY *  FOG       39  39 100 CALM      29.38F VSB 1/2
WEBSTER CITY * CLOUDY    41 N/A N/A SW9       29.39F FOG
IOWA FALLS *   FOG       44  43  97 SW8       29.41F VSB 1
$$

IAZ007>011-017>019-026>030-037>042-050>054-066-211900-
   NORTHEAST IOWA

CITY           SKY/WX    TMP DP  RH WIND       PRES   REMARKS
CEDAR RAPIDS   FOG       43  43 100 SW8       29.43F VSB 1/2
6HR MIN TEMP:  41; 6HR MAX TEMP:  44;

CHARLES CITY * FOG       39  39 100 SW6       29.40F VSB<1/4 WCI  35
CLINTON *      CLOUDY    46  44  93 W14       29.45F
DECORAH *      FOG       39  39 100 VRB5      29.39F VSB<1/4
MONTICELLO *   CLOUDY    45  45 100 S8        29.43F FOG
OELWEIN *      FOG       39  39 100 S8        29.42S VSB<1/4 WCI  34
WATERLOO       CLOUDY    44  43  96 SW8       29.41F FOG
6HR MIN TEMP:  39; 6HR MAX TEMP:  44;

$$

IAZ064-065-067-068-078-211900-
   EAST CENTRAL IOWA

CITY           SKY/WX    TMP DP  RH WIND       PRES   REMARKS
DAVENPORT      CLOUDY    45  42  89 W14       29.46F
6HR MIN TEMP:  42; 6HR MAX TEMP:  49;

IOWA CITY      CLOUDY    45  43  93 SW7       29.47S FOG
6HR MIN TEMP:  43; 6HR MAX TEMP:  46;

MUSCATINE *    CLOUDY    45  43  93 S9        29.48F FOG
QUAD CITIES    PTSUNNY   53  45  74 W13       29.45S
6HR MIN TEMP:  40; 6HR MAX TEMP:  53;

$$

IAZ062-063-075>077-085>089-095>099-211900-
   SOUTHEAST IOWA

CITY           SKY/WX    TMP DP  RH WIND       PRES   REMARKS
BURLINGTON     SUNNY     51  45  79 SW10      29.47F
6HR MIN TEMP:  43; 6HR MAX TEMP:  51;

FAIRFIELD *    CLOUDY    45  45 100 S17       29.47F FOG
FORT MADISON * SUNNY     54  54 100 SW7       29.49F
KEOKUK *       SUNNY     54 N/A N/A SW13      29.48F
OSKALOOSA *    CLOUDY    43  43  99 SW14      29.46F FOG
OTTUMWA        CLOUDY    45  42  89 SW12      29.46S FOG
6HR MIN TEMP:  43; 6HR MAX TEMP:  45;

WASHINGTON *   CLOUDY    45  45 100 SW10      29.48S FOG
$$

ABBREVIATIONS USED IN REMARKS
   TC - TEMPERATURES IN CELSIUS
  WCI - WIND CHILL INDEX
   HX - HEAT INDEX
  VSB - VISIBILITY
$$




USA.gov is the U.S. government's official web portal to all federal, state and local government web resources and services.